User: anonymous   Login
Location: Darlington Observatory
(36.4817°N, 105.8156°W)
Time: 17:56:29
(UTC-06:00)
Language:

MOS 1 - Orbit

View from above orbital plane
View from above orbital plane
View from above satellite
View from above satellite

Ground track
Ground track

The orbit data is extracted from the following two-line orbital elements,

1 17527U 87018A   17082.91386885 +.00000088 +00000-0 +87424-4 0  9997
2 17527 099.2700 095.7059 0008968 161.6708 260.4968 14.02469516537295
Epoch (UTC): 23 March 2017 21:55:58
Eccentricity: 0.0008968
inclination: 99.2700°
perigee height: 879 km
apogee height: 892 km
right ascension of ascending node: 95.7059°
argument of perigee: 161.6708°
revolutions per day: 14.02469516
mean anomaly at epoch: 260.4968°
orbit number at epoch: 53729

The dashed part of the orbit path shows where the satellite is in the earth's shadow,  

DLR